Freeland, MI

3:57 AM EST on December 04, 2016 (GMT -0500)
MBS International

Weather History for KMBS - April, 2014

Change the Weather History Date:

Wednesday, April 23, 2014

  Actual Average Record
Temperature  
Mean Temperature 45 °F 49 °F  
Max Temperature 57 °F 60 °F 75 °F (2001)
Min Temperature 33 °F 39 °F 28 °F (2002)
Degree Days  
Heating Degree Days 20    
Month to date heating degree days 441  
Since 1 July heating degree days 7256  
Cooling Degree Days 0    
Month to date cooling degree days 3  
Year to date cooling degree days 3  
Moisture  
Dew Point 24 °F    
Average Humidity 50    
Maximum Humidity 82    
Minimum Humidity 18    
Precipitation  
Precipitation 0.00 in 0.10 in 0.45 in (2001)
Month to date precipitation 2.76 2.19  
Year to date precipitation 7.57 7.57  
Snow  
Snow 0.00 in - - ()
Month to date snowfall 1.4  
Since 1 July snowfall 60.3  
Snow Depth 0.00 in    
Sea Level Pressure  
Sea Level Pressure 30.09 in    
Wind  
Wind Speed 9 mph (North)    
Max Wind Speed 16 mph    
Max Gust Speed 20 mph    
Visibility 10 miles    
Events      
T = Trace of Precipitation, MM = Missing Value Source: NWS Daily Summary

Daily Weather History Graph

Daily Weather History Graph

Search for Another Location

Airport or City:

Trip Planner

Search our weather history database for the weather conditions in past years. The results will help you decide how hot, cold, wet, or windy it might be!

Date:

Astronomy

Apr. 23, 2014 Rise Set
Actual Time 6:40 AM EDT 8:29 PM EDT
Civil Twilight 6:10 AM EDT 8:59 PM EDT
Nautical Twilight 5:33 AM EDT 9:37 PM EDT
Astronomical Twilight 4:53 AM EDT 10:17 PM EDT
Moon 3:23 AM EDT (4/23) 2:26 PM EDT (4/23)
Length of Visible Light 14h 49m
Length of Day
13h 48m
Waning Crescent, 35% of the Moon is Illuminated
Apr 23
Waning Crescent
Apr 29
New
May 6
First Quarter
May 14
Full
May 21
Last Quarter

Hourly Weather History & Observations

Time (EDT) Temp. Windchill Dew Point Humidity Pressure Visibility Wind Dir Wind Speed Gust Speed Precip Events Conditions
12:53 AM 37.9 °F 30.0 °F 28.0 °F 68% 30.00 in 10.0 mi NW 12.7 mph - N/A   Overcast
1:03 AM 37.4 °F 28.9 °F 28.4 °F 70% 29.99 in 10.0 mi NW 13.8 mph - N/A   Overcast
1:53 AM 36.0 °F 28.5 °F 28.0 °F 73% 30.01 in 10.0 mi NW 10.4 mph - N/A   Partly Cloudy
2:53 AM 36.0 °F 28.0 °F 28.0 °F 73% 30.01 in 10.0 mi NW 11.5 mph - N/A   Partly Cloudy
3:53 AM 35.1 °F 27.9 °F 28.0 °F 76% 30.02 in 10.0 mi WNW 9.2 mph - N/A   Clear
4:53 AM 34.0 °F 25.5 °F 28.0 °F 79% 30.04 in 10.0 mi NW 11.5 mph - N/A   Clear
5:53 AM 34.0 °F 25.5 °F 28.0 °F 79% 30.06 in 10.0 mi NNW 11.5 mph - N/A   Clear
6:53 AM 33.1 °F 25.5 °F 27.0 °F 78% 30.08 in 10.0 mi NNW 9.2 mph - N/A   Clear
7:53 AM 35.1 °F 27.4 °F 28.0 °F 76% 30.11 in 10.0 mi NNW 10.4 mph - N/A   Clear
8:53 AM 39.0 °F 31.0 °F 28.0 °F 65% 30.12 in 10.0 mi North 13.8 mph - N/A   Clear
9:53 AM 42.1 °F 36.6 °F 26.1 °F 53% 30.14 in 10.0 mi North 9.2 mph - N/A   Clear
10:53 AM 45.0 °F 38.9 °F 21.9 °F 40% 30.14 in 10.0 mi North 12.7 mph - N/A   Clear
11:53 AM 46.9 °F - 19.0 °F 33% 30.15 in 10.0 mi NE 8.1 mph - N/A   Clear
12:53 PM 50.0 °F - 17.6 °F 28% 30.12 in 10.0 mi NNE 11.5 mph - N/A   Clear
1:53 PM 52.0 °F - 15.1 °F 23% 30.13 in 10.0 mi NNE 12.7 mph 19.6 mph N/A   Clear
2:53 PM 54.0 °F - 17.1 °F 23% 30.12 in 10.0 mi NNW 6.9 mph - N/A   Clear
3:53 PM 55.0 °F - 18.0 °F 23% 30.11 in 10.0 mi East 9.2 mph - N/A   Clear
4:53 PM 55.9 °F - 12.9 °F 18% 30.11 in 10.0 mi Calm Calm - N/A   Clear
5:53 PM 55.9 °F - 17.1 °F 22% 30.09 in 10.0 mi East 9.2 mph - N/A   Clear
6:53 PM 55.0 °F - 18.0 °F 23% 30.09 in 10.0 mi East 6.9 mph - N/A   Clear
7:53 PM 51.1 °F - 26.1 °F 38% 30.11 in 10.0 mi NE 11.5 mph - N/A   Clear
8:53 PM 44.1 °F 39.0 °F 32.0 °F 63% 30.12 in 10.0 mi NNE 9.2 mph - N/A   Clear
9:53 PM 42.1 °F 37.7 °F 32.0 °F 67% 30.14 in 10.0 mi NE 6.9 mph - N/A   Clear
10:53 PM 43.0 °F 38.2 °F 25.0 °F 49% 30.14 in 10.0 mi East 8.1 mph - N/A   Clear
11:53 PM 39.9 °F 34.5 °F 24.1 °F 53% 30.15 in 10.0 mi East 8.1 mph - N/A   Clear